Regional Weather Roundup
Issued by NWS

Home | Current Version | Previous Version | Text Only | Print | Product List | Glossary On
Versions: 1 2 3 4 5 6 7 8 9 10 11 12 13 14 15 16 17 18 19 20 21 22 23 24 25 26 27 28 29 30 31 32 33 34 35 36 37 38 39 40 41 42 43 44 45 46 47 48 49 50
000
ASUS42 KFFC 240803
RWRGA
WEATHER ROUNDUP FOR GEORGIA
NATIONAL WEATHER SERVICE PEACHTREE CITY GA
400 AM EDT TUE MAY 24 2016

NOTE: "FAIR" INDICATES FEW OR NO CLOUDS BELOW 12,000 FEET WITH NO
SIGNIFICANT WEATHER AND/OR OBSTRUCTIONS TO VISIBILITY.

* = USE WITH CAUTION. THE STATIONS MARKED WITH AN ASTERISK MAY NOT
REPORT WEATHER SUCH AS PRECIPITATION, FOG, OR THUNDER AND ARE NOT
QUALITY CONTROLLED BY NWS.

THE REMARK "TC" DENOTES TEMPERATURE READING IN DEGREES CELSIUS.

GAZ001>058-240900-
NORTH GEORGIA

CITY           SKY/WX    TMP DP  RH WIND       PRES   REMARKS
ATLANTA        PTCLDY    65  49  56 NE7       30.04R
ATHENS         PTCLDY    56  53  90 E5        30.06R
CHAMBLEE       CLEAR     62  50  64 CALM      30.05R
PEACHTREE CITY PTCLDY    54  53  97 CALM      30.04R
ROME           CLEAR     54  52  93 CALM      30.04R
WEST ATLANTA   CLEAR     58  54  86 CALM      30.04R
GAINESVILLE    CLEAR     61  50  67 E5        30.09S
CARTERSVILLE   CLEAR     58  52  80 E3        30.05R


CITY           SKY/WX    TMP DP  RH WIND       PRES   REMARKS
DALTON*        CLEAR     54  54 100 CALM      30.04S
MARIETTA       PTCLDY    60  53  75 NE3       30.05R
CANTON*        MOCLDY    63  45  51 NE6       30.08R
BLAIRSVILLE*     N/A    N/A N/A N/A MISG      30.10S
$$

GAZ059>098-102>109-240900-
CENTRAL GEORGIA

CITY           SKY/WX    TMP DP  RH WIND       PRES   REMARKS
AUGUSTA-BUSH   CLEAR     56  55  97 SW3       30.06R
AUGUSTA-DANIEL CLEAR     65  52  62 SE3       30.07R
COLUMBUS       CLEAR     61  56  83 CALM      30.02R
MACON          PTCLDY    58  56  93 CALM      30.03R
ROBINS AFB     PTCLDY    60  57  90 S2        30.02R


CITY           SKY/WX    TMP DP  RH WIND       PRES   REMARKS
LAGRANGE*      CLEAR     56  56 100 CALM      30.04R
SYLVANIA*      CLEAR     63  57  80 CALM      30.07R
MILLEDGEVILLE* PTCLDY    63  54  72 CALM      30.03F
$$

GAZ099>101-110>166-240900-
SOUTH GEORGIA

CITY           SKY/WX    TMP DP  RH WIND       PRES   REMARKS
SAVANNAH       CLEAR     65  59  81 CALM      30.05S
VALDOSTA       CLEAR     58  57  97 CALM      30.02S
ALMA           CLEAR     58  56  93 CALM      30.03S
ST SIMONS      CLEAR     72  61  68 S5        30.03S
FT STEWART     CLEAR     59  57  93 CALM      30.02S
ALBANY         CLEAR     60  55  83 CALM      30.04S
MOODY AFB      CLEAR     62  55  76 CALM      30.02R
BRUNSWICK      CLEAR     61  61 100 CALM      30.04S


CITY           SKY/WX    TMP DP  RH WIND       PRES   REMARKS
BAINBRIDGE*    CLEAR     61  59  94 SW3       30.02S
MOULTRIE*      CLEAR     61  59  94 CALM      30.04R
VIDALIA*       CLEAR     61  57  88 CALM      30.04R
WAYCROSS*      CLEAR     61  58  90 CALM      30.04R
DOUGLAS*       CLEAR     64  55  72 CALM      30.05S
$$



USA.gov is the U.S. government's official web portal to all federal, state and local government web resources and services.